Showing default

NUSAT-40 (C SHOEMAKER), 56943

Orbit data source: Space-Track

NUSAT-40 (C SHOEMAKER), 56943 is a payload satellite owned by URUGUS S.A. (AR) in SSO that was launched on Mon, 12 Jun 2023 UTC via an FALCON 9 launch vehicle from the Air Force Western Test Range (AFWTR). Payload-class satellites include a variety of spacecraft equipped with specific instruments for various scientific and technological missions. These include communications satellites like Starlink; space stations such as the ISS; scientific satellites like the Hubble; Earth observation satellites from companies like Planet Labs, Umbra, and HawkEye 360; GPS; miniature CubeSats for education and research; and military/defense satellites.

Not visible in the next 10 days
Identifier
56943, 2023-084M
Orbit
SSO
Country
Flag of UnknownUnknown / ARGN
Related business
Manufacturer
URUGUS S.A.
Mission
Operational Commercial Imaging
Bus & Motor
NEWSAT V, Unknown motor
Mass
41.5 kg wet, 38.5 kg dry
Launch date (UTC)
2023-06-12 (3 years ago)
Launch vehicle
FALCON 9
Launch site
Air Force Western Test Range (AFWTR)
Object type
Payload
Rocket body
Debris
Shape & HBR
Box, 1.0 m
Radar Cross Section
0.542 m², Medium (>0.1 m² and < 1m²)

Expand to show TLE details & history
Last TLE update: 14 hours ago

TLE from 14 hours ago
0 NUSAT-40 (C SHOEMAKER)
1 56943U 23084M   26034.50155200  .00050949  00000-0  71390-3 0  9997
2 56943  97.4721 172.7184 0004389  21.4363 338.7074 15.56617174147896
Epoch: 2026-02-03T12:02Z
TLE epoch observation values (Epoch: 2026-02-03T12:02:14.092Z)
Latitude
-0.00012°
Longitude
-141.52188°
Altitude
397.822 km
Speed
7.673 km/s
True Right ascension
11h 30m 52s
True Declination
0° 00' 00"
Sunlit
Object was in full shadow at epoch
Visualization orbit readout
Latitude
Unknown
Longitude
Unknown
Altitude
Unknown
Speed
Unknown
Apparent Right ascension
Unknown
Apparent Declination
Unknown
Sunlit
N/A
Visualization observer readout
Local Sidereal Time
04:13:54
Azimuth
Unknown
Elevation
Unknown
Doppler factor
Unknown
Orbital elements
Apogee altitude
397.348 km
Perigee altitude
391.403 km
Semi-major axis
6,772.513 km
Eccentricity
0.00044
Inclination
97.4721°
RAAN
172.7184°
Arg. of periapsis
21.4363°
True anomaly
338.68913°
Mean anomaly
338.7074°
Eccentric anomaly
338.69826°
Mean motion
3.8942 °/min
Orbital period
92.45 mins
BSTAR
0.0007139
Loading maneuver chart data...
Computing Atmospheric mass density...
Loading historical data...
Loading historical data...
Loading historical data...
Loading historical data...
Loading historical data...
Loading historical data...
Loading historical data...

Documentation

Showing up to 5 results
|